N1DNE Weather Reports


Display with metric or nautical units.
time (UTC)temp
F
wind
direction
speed
MPH
gust
MPH
rain 1hr
in
rain 24hr
in
rain mn
in
humidity
%
barometer
mb
20260903205452 78 182 0.0 1.0 0.00 0.30 0.30 89 1010.0
20260903204451 78 182 0.0 0.0 0.00 0.30 0.30 90 1010.2
20260903203450 78 182 0.0 0.0 0.00 0.30 0.30 89 1010.2
20260903202448 78 182 0.0 0.0 0.00 0.30 0.30 88 1010.3
20260903201450 78 182 0.0 0.0 0.00 0.30 0.30 87 1010.2
20260903200450 78 182 0.0 1.0 0.00 0.30 0.30 87 1010.3
20260903195449 78 182 0.0 0.0 0.00 0.30 0.30 87 1010.3
20260903194450 78 182 0.0 0.0 0.00 0.30 0.30 87 1010.5
20260903193449 78 182 0.0 0.0 0.00 0.30 0.30 88 1010.5
20260903192933 78 182 0.0 0.0 0.00 0.30 0.30 86 1010.6
20260903191450 79 182 0.0 0.0 0.00 0.30 0.30 86 1010.7
20260903190449 79 182 0.0 0.0 0.00 0.30 0.30 84 1010.8
20260903185927 79 182 0.0 0.0 0.00 0.30 0.30 84 1010.9
20260903184443 79 182 0.0 3.0 0.00 0.30 0.30 83 1010.8
20260903183444 79 182 0.0 3.0 0.00 0.30 0.30 84 1010.9
20260903182916 78 182 0.0 0.0 0.00 0.30 0.30 86 1011.1
20260903181443 78 182 0.0 0.0 0.00 0.30 0.30 84 1011.1
20260903180443 78 182 0.0 3.0 0.00 0.30 0.30 84 1011.1
20260903175919 78 182 1.0 3.0 0.00 0.30 0.30 84 1011.2
20260903174442 77 182 1.0 5.0 0.00 0.30 0.30 84 1011.2
20260903173443 77 182 0.0 2.0 0.00 0.30 0.30 87 1011.2
20260903172438 77 182 0.0 3.0 0.00 0.30 0.30 86 1011.3
20260903171438 76 182 0.0 3.0 0.00 0.30 0.30 87 1011.4
20260903170437 76 182 0.0 2.0 0.00 0.30 0.30 88 1011.3
20260903165437 76 182 0.0 4.0 0.00 0.30 0.30 89 1011.3
20260903164913 75 182 0.0 4.0 0.00 0.30 0.30 90 1011.4
20260903163437 75 182 1.0 3.0 0.00 0.30 0.30 89 1011.5
20260903162438 74 182 0.0 5.0 0.00 0.30 0.30 91 1011.7
20260903161437 73 182 2.0 5.0 0.00 0.30 0.30 91 1011.9
20260903160438 73 182 0.0 4.0 0.00 0.30 0.30 93 1012.0
20260903155431 73 182 0.0 2.0 0.00 0.30 0.30 93 1012.1
20260903154431 72 182 0.0 2.0 0.00 0.30 0.30 93 1012.1
20260903153431 72 182 0.0 2.0 0.00 0.30 0.30 94 1012.1
20260903152430 72 182 0.0 2.0 0.00 0.30 0.30 95 1012.2
20260903151431 71 182 0.0 3.0 0.00 0.30 0.30 95 1012.2
20260903150908 71 182 1.0 3.0 0.00 0.30 0.30 95 1012.2
20260903145432 71 182 1.0 6.0 0.00 0.30 0.30 96 1012.3
20260903144430 70 178 0.0 3.0 0.00 0.30 0.30 96 1012.1
20260903143431 70 178 0.0 2.0 0.00 0.30 0.30 96 1012.1
20260903143356 70 178 0.0 2.0 0.00 0.30 0.30 96 1012.1
20260903141906 70 178 0.0 2.0 0.00 0.30 0.30 96 1012.2
20260903140425 70 178 0.0 2.0 0.00 0.30 0.30 96 1012.3
20260903135424 69 178 0.0 2.0 0.00 0.30 0.30 96 1012.2
20260903134423 69 178 0.0 3.0 0.00 0.30 0.30 96 1012.3
20260903133424 69 178 0.0 3.0 0.00 0.30 0.30 96 1012.3
20260903132425 69 178 0.0 1.0 0.00 0.30 0.30 97 1012.5
20260903131424 68 178 0.0 2.0 0.00 0.30 0.30 96 1012.8
20260903130900 67 176 0.0 0.0 0.00 0.30 0.30 96 1012.9
20260903125422 67 176 0.0 0.0 0.00 0.30 0.30 96 1013.0
20260903124422 67 176 0.0 0.0 0.00 0.30 0.30 96 1012.9
20260903123423 66 176 0.0 0.0 0.01 0.30 0.30 96 1013.1
20260903122421 66 176 0.0 0.0 0.01 0.30 0.30 96 1013.2
20260903121423 66 176 0.0 0.0 0.01 0.30 0.30 96 1013.2
20260903120423 65 176 0.0 0.0 0.01 0.30 0.30 96 1013.4
20260903115423 65 176 0.0 0.0 0.01 0.30 0.30 96 1013.6
20260903114902 65 176 0.0 0.0 0.01 0.30 0.30 96 1013.6
20260903113423 65 176 0.0 0.0 0.00 0.29 0.29 96 1013.7
20260903112421 65 176 0.0 0.0 0.01 0.29 0.29 96 1013.7
20260903111423 65 176 0.0 0.0 0.01 0.29 0.29 96 1013.6
20260903110423 65 176 0.0 0.0 0.01 0.29 0.29 96 1013.5
20260903105423 65 176 0.0 0.0 0.01 0.29 0.29 96 1013.7
20260903104421 65 176 0.0 0.0 0.01 0.29 0.29 96 1013.6
20260903103424 64 176 0.0 0.0 0.01 0.29 0.29 96 1013.5
20260903102421 64 176 0.0 0.0 0.00 0.28 0.28 96 1013.5
20260903101423 64 176 0.0 0.0 0.01 0.28 0.28 96 1013.4
20260903100425 64 176 0.0 0.0 0.12 0.28 0.28 96 1013.3
20260903095423 64 176 0.0 0.0 0.12 0.28 0.28 96 1013.2
20260903094423 64 176 0.0 0.0 0.17 0.28 0.28 96 1012.9
20260903093423 64 176 0.0 0.0 0.17 0.28 0.28 96 1012.8
20260903092419 64 176 0.0 0.0 0.17 0.28 0.28 96 1012.9
20260903091905 64 176 0.0 0.0 0.16 0.27 0.27 96 1013.2
20260903090417 64 176 0.0 0.0 0.05 0.16 0.16 96 1013.5
20260903085418 64 176 0.0 0.0 0.05 0.16 0.16 96 1013.4
20260903084412 64 176 0.0 0.0 0.00 0.11 0.11 96 1013.4
20260903083413 64 176 0.0 0.0 0.00 0.11 0.11 96 1013.3
20260903083325 64 176 0.0 0.0 0.00 0.11 0.11 96 1013.5
20260903081412 64 176 0.0 0.0 0.00 0.11 0.11 95 1013.8
20260903080413 64 176 0.0 0.0 0.00 0.11 0.11 95 1013.8
20260903075413 64 176 0.0 0.0 0.00 0.11 0.11 95 1013.7
20260903074411 64 176 0.0 0.0 0.00 0.11 0.11 95 1013.6
20260903073413 63 176 0.0 0.0 0.00 0.11 0.11 95 1013.8
20260903072414 63 176 0.0 0.0 0.01 0.11 0.11 95 1014.0
20260903071406 63 176 0.0 0.0 0.01 0.11 0.11 95 1014.2
20260903070405 63 176 0.0 0.0 0.04 0.11 0.11 95 1014.0
20260903065844 64 176 0.0 0.0 0.07 0.11 0.11 95 1014.2
20260903064406 64 176 0.0 0.0 0.08 0.12 0.11 94 1014.1
20260903064328 64 176 0.0 0.0 0.11 0.12 0.11 94 1014.3
20260903062837 64 176 0.0 0.0 0.10 0.11 0.10 94 1014.0
20260903061405 64 176 0.0 0.0 0.10 0.11 0.10 93 1014.3
20260903060405 64 176 0.0 0.0 0.07 0.08 0.07 93 1014.7
20260903055406 65 176 0.0 0.0 0.04 0.05 0.04 92 1015.4
20260903054838 65 176 0.0 0.0 0.03 0.04 0.03 92 1015.9
20260903053401 65 176 0.0 0.0 0.00 0.01 0.00 91 1016.2
20260903052359 65 176 0.0 0.0 0.00 0.01 0.00 90 1016.3
20260903051359 65 176 0.0 0.0 0.00 0.01 0.00 89 1016.3
20260903050835 65 176 0.0 0.0 0.00 0.01 0.00 89 1016.5
20260903045400 65 176 0.0 0.0 0.00 0.01 0.00 89 1016.4
20260903044401 65 176 0.0 0.0 0.00 0.01 0.00 88 1016.3
20260903043359 65 176 0.0 0.0 0.00 0.01 0.00 88 1016.6
20260903042400 65 176 0.0 0.0 0.00 0.01 0.00 88 1016.6
20260903041355 65 176 0.0 0.0 0.00 0.01 0.00 88 1016.8
20260903040354 65 176 0.0 0.0 0.00 0.01 0.00 87 1016.6
20260903035355 65 176 0.0 0.0 0.00 0.01 0.01 87 1016.7
20260903034355 65 176 0.0 0.0 0.00 0.01 0.01 87 1016.6
20260903033353 65 176 0.0 0.0 0.00 0.01 0.01 85 1016.4
20260903032354 65 176 0.0 0.0 0.00 0.01 0.01 85 1016.2
20260903031837 66 176 0.0 0.0 0.00 0.01 0.01 84 1016.3
20260903030355 66 176 0.0 0.0 0.00 0.01 0.01 83 1016.7
20260903025355 66 176 0.0 0.0 0.00 0.01 0.01 84 1017.0
20260903024348 66 176 0.0 0.0 0.00 0.01 0.01 84 1017.2
20260903023347 66 176 0.0 0.0 0.00 0.01 0.01 84 1017.4
20260903022347 66 176 0.0 0.0 0.00 0.01 0.01 83 1017.8
20260903021347 66 176 0.0 1.0 0.00 0.01 0.01 82 1017.7
20260903020347 66 176 0.0 2.0 0.00 0.01 0.01 83 1018.0
20260903015348 66 176 0.0 2.0 0.00 0.01 0.01 82 1018.2
20260903014349 66 176 0.0 2.0 0.00 0.01 0.01 83 1018.0
20260903013835 66 176 0.0 0.0 0.00 0.01 0.01 84 1017.7
20260903012348 67 176 0.0 2.0 0.00 0.01 0.01 83 1017.4
20260903011342 67 176 0.0 1.0 0.00 0.01 0.01 84 1017.4
20260903010342 67 176 0.0 0.0 0.00 0.01 0.01 83 1017.3
20260903005341 67 176 0.0 0.0 0.00 0.01 0.01 84 1017.4
20260903004342 67 176 0.0 0.0 0.00 0.01 0.01 83 1017.6
20260903003341 67 176 0.0 0.0 0.00 0.01 0.01 83 1017.8
20260903002749 67 176 0.0 0.0 0.00 0.01 0.01 84 1017.7
20260903002424 67 176 0.0 0.0 0.00 0.01 0.01 84 1017.7
20260903000343 67 176 0.0 0.0 0.00 0.01 0.01 83 1017.6
20260902235342 68 176 0.0 1.0 0.00 0.01 0.01 84 1017.6
20260902234336 68 176 0.0 1.0 0.00 0.01 0.01 82 1017.7
20260902233335 68 176 0.0 0.0 0.00 0.01 0.01 82 1017.7
20260902233251 68 176 0.0 0.0 0.00 0.01 0.01 82 1018.0
20260902231336 68 176 0.0 0.0 0.00 0.01 0.01 81 1018.1
20260902230336 69 176 0.0 0.0 0.00 0.01 0.01 81 1018.3
20260902230258 69 176 0.0 1.0 0.00 0.01 0.01 80 1018.4
20260902224335 69 176 0.0 1.0 0.00 0.01 0.01 79 1018.6
20260902223816 69 176 0.0 4.0 0.00 0.01 0.01 80 1018.7
20260902222337 69 176 0.0 3.0 0.00 0.02 0.01 80 1018.6
20260902221330 69 176 0.0 2.0 0.00 0.02 0.01 80 1018.7
20260902220731 69 176 0.0 0.0 0.00 0.02 0.01 81 1018.8
20260902220407 69 176 0.0 3.0 0.00 0.02 0.01 80 1018.7
20260902214330 69 176 0.0 0.0 0.00 0.03 0.01 79 1018.8
20260902213328 69 176 0.0 0.0 0.00 0.03 0.01 80 1018.5
20260902212330 70 176 0.0 0.0 0.00 0.04 0.01 79 1018.4
20260902211331 70 176 0.0 0.0 0.00 0.05 0.01 79 1018.3
20260902210329 70 176 0.0 1.0 0.00 0.05 0.01 76 1018.1